Location: Dąbrowa Miętka
(51.3714°N, 18.6370°E)
Time: 17:16:28
(UTC+02:00)

ISS - Pass Details

Date: 29 May 2018
Orbit: 402 x 406 km, 51.6° (Epoch: 20 June)

Event Time Altitude Azimuth Distance (km) Brightness Sun altitude
Rises 23:18:32 0° 283° (WNW) 2,324 0.5 -14.6°
Reaches altitude 10° 23:20:39 10° 279° (W) 1,462 -0.6 -14.7°
Maximum altitude 23:23:51 52° 202° (SSW) 509 -3.7 -14.9°
Enters shadow 23:24:55 34° 145° (SE) 683 -3.2 -14.9°
